STARLINK-34998

Last updated on Thu Oct 02 2025 00:02:05 GMT+0000 (Coordinated Universal Time)

1 65474U 25195S 25274.50002315 .00115611 00000+0 28628-2 0 9996 2 65474 53.1598 280.7293 0001372 61.1678 58.9704 15.39553825 4836
UTC large
Height (km)
Speed (km/s)
/
Latitude / Longitude
Inclination (degrees)
Orbital Period (minutes)
Azimuth
Elevation
Range (km)
Doppler Factor

Next 0 passes for location: London (51.5072 / 0.1276)

Sorry there are no passes over London.
STARLINK-34998